TURKSAT 4B

Last updated on Sun Apr 12 2026 00:02:54 GMT+0000 (Coordinated Universal Time)

1 40984U 15060A 26101.45932174 .00000117 00000+0 00000+0 0 9999 2 40984 0.0137 149.2095 0002131 230.5184 35.3098 1.00269820 38421
UTC large
Height (km)
Speed (km/s)
/
Latitude / Longitude
Inclination (degrees)
Orbital Period (minutes)
Azimuth
Elevation
Range (km)
Doppler Factor

Next 0 passes for location: London (51.5072 / 0.1276)

Sorry there are no passes over London.
TURKSAT 4B